This demonstration page uses our WeatherBlox Daily Observations layout. Learn more.

Left ArrowRight Arrow

36.17497, -115.13722

Hourly Observations for November 16, 2020

Temp ( °F °C ) Dew Point ( °F °C ) Humidity (%) Winds ( mph kmh ) Pressure ( in mb ) Visibility ( mi km ) Precip ( " mm )
12:53 am 00:53 Clear 52 11.1 19 -7.2 27 27 WNW 7 11 30.25 1024 10 16 0.00 0.00
1:53 am 01:53 Clear 50 10 23 -5 35 35 W 3 6 30.24 1024 10 16 0.00 0.00
2:53 am 02:53 Clear 49 9.4 22 -5.6 35 35 WNW 6 9 30.24 1024 10 16 0.00 0.00
3:53 am 03:53 Clear 48 8.9 22 -5.6 36 36 W 3 6 30.25 1024 10 16 0.00 0.00
4:53 am 04:53 Clear 46 7.8 21 -6.1 37 37 NW 5 7 30.27 1025 10 16 0.00 0.00
5:53 am 05:53 Clear 46 7.8 21 -6.1 37 37 WNW 6 9 30.29 1026 10 16 0.00 0.00
6:53 am 06:53 Sunny 47 8.3 22 -5.6 37 37 NW 6 9 30.30 1026 10 16 0.00 0.00
7:53 am 07:53 Sunny 53 11.7 20 -6.7 27 27 W 3 6 30.31 1027 10 16 0.00 0.00
8:53 am 08:53 Sunny 59 15 23 -5 25 25 Calm 30.30 1026 10 16 0.00 0.00
9:53 am 09:53 Sunny 62 16.7 20 -6.7 20 20 SE 5 7 30.29 1026 10 16 0.00 0.00
10:53 am 10:53 Sunny 66 18.9 20 -6.7 17 17 SE 5 7 30.27 1025 10 16 0.00 0.00
11:53 am 11:53 Sunny 69 20.6 19 -7.2 15 15 ESE 5 7 30.22 1023 10 16 0.00 0.00
12:53 pm 12:53 Sunny 71 21.7 17 -8.3 13 13 SE 3 6 30.17 1022 10 16 0.00 0.00
1:53 pm 13:53 Sunny 74 23.3 17 -8.3 11 11 SSE 3 6 30.14 1021 10 16 0.00 0.00
2:53 pm 14:53 Sunny 74 23.3 17 -8.3 11 11 SE 5 7 30.12 1020 10 16 0.00 0.00
3:53 pm 15:53 Sunny 74 23.3 17 -8.3 11 11 SSE 5 7 30.11 1020 10 16 0.00 0.00
4:53 pm 16:53 Clear 71 21.7 20 -6.7 14 14 SW 3 6 30.11 1020 10 16 0.00 0.00
5:53 pm 17:53 Clear 64 17.8 21 -6.1 19 19 WNW 3 6 30.13 1020 10 16 0.00 0.00
6:53 pm 18:53 Clear 62 16.7 22 -5.6 21 21 WNW 6 9 30.13 1020 10 16 0.00 0.00
7:53 pm 19:53 Clear 58 14.4 22 -5.6 25 25 NW 6 9 30.13 1020 10 16 0.00 0.00
8:53 pm 20:53 Clear 57 13.9 22 -5.6 26 26 WNW 3 6 30.12 1020 10 16 0.00 0.00
9:53 pm 21:53 Clear 55 12.8 24 -4.4 30 30 NW 7 11 30.12 1020 10 16 0.00 0.00
10:53 pm 22:53 Clear 55 12.8 23 -5 29 29 WNW 6 9 30.11 1020 10 16 0.00 0.00
11:53 pm 23:53 Clear 52 11.1 23 -5 32 32 WNW 6 9 30.11 1020 10 16 0.00 0.00

Powered by AerisWeather